Location: Newark
(31.5350°N, 35.0986°E)
Time: 19:18:07
(UTC+00:00)

Transit 4A - Pass Details

Date: 23 October 2019
Orbit: 868 x 976 km, 66.8° (Epoch: 13 November)

Event Time Altitude Azimuth Distance (km) Brightness Sun altitude
Rises 02:42:46 0° 248° (WSW) 3,659 - -14.6°
Reaches altitude 10° 02:46:14 10° 266° (W) 2,706 - -13.9°
Exits shadow 02:48:54 17° 290° (WNW) 2,243 9.3 -13.3°
Maximum altitude 02:50:25 18° 308° (NW) 2,160 9.3 -13.0°
Drops below altitude 10° 02:54:35 10° 350° (N) 2,677 10.1 -12.1°
Sets 02:58:01 0° 9° (N) 3,605 11.0 -11.4°
